Precipitable_Water
0.94 1.02 0.98 1.01 1.08 1.08 1.04 1.15 1.18 1.19 1.21 1.23 1.32 1.44 1.47 1.41 1.32 1.26 1.19 1.11 1.07 1.07 1.11 1.11 1.09 1.11 1.06 1.07 1.07 1.07 1.10 1.09 1.10 1.09 1.06 1.03 1.01 1.00 1.02 1.08 1.08 1.10 1.14 1.09 1.10 1.11 1.17 1.24 1.26 1.27 1.34 1.37 1.35 1.32 1.33 1.36 1.42 1.49 1.51 1.53 1.54 1.56 1.62
0.87 0.93 0.99 1.00 0.99 1.00 1.04 1.10 1.11 1.09 1.13 1.33 1.53 1.60 1.56 1.46 1.36 1.25 1.17 1.11 1.04 1.00 1.04 1.08 1.09 1.08 1.07 1.06 1.06 1.06 1.05 1.07 1.11 1.13 1.12 1.08 1.07 1.04 1.05 1.07 1.08 1.10 1.13 1.14 1.15 1.16 1.17 1.21 1.24 1.25 1.26 1.33 1.35 1.35 1.31 1.31 1.35 1.41 1.45 1.47 1.48 1.49 1.53
0.82 0.86 1.05 1.16 1.10 1.07 1.09 1.12 1.17 1.17 1.19 1.32 1.56 1.64 1.55 1.46 1.37 1.25 1.19 1.15 1.08 1.04 1.04 1.04 1.03 1.05 1.07 1.07 1.04 1.05 1.05 1.08 1.11 1.11 1.07 1.04 1.03 1.02 1.03 1.06 1.12 1.15 1.15 1.18 1.20 1.20 1.21 1.22 1.20 1.25 1.26 1.26 1.31 1.35 1.35 1.33 1.33 1.37 1.42 1.44 1.41 1.42 1.45
0.83 0.90 0.92 1.06 1.12 1.14 1.20 1.20 1.21 1.24 1.34 1.52 1.54 1.55 1.50 1.42 1.39 1.36 1.30 1.20 1.10 1.09 1.03 1.02 1.02 1.04 1.05 1.03 1.02 1.02 1.03 1.04 1.06 1.07 1.06 1.06 1.05 1.06 1.04 1.03 1.09 1.15 1.17 1.15 1.17 1.21 1.24 1.23 1.23 1.20 1.23 1.22 1.24 1.31 1.33 1.33 1.37 1.39 1.44 1.45 1.41 1.39 1.37
0.79 0.89 0.89 0.96 1.13 1.11 1.07 1.14 1.29 1.35 1.29 1.54 1.66 1.69 1.52 1.48 1.47 1.43 1.38 1.35 1.23 1.05 1.00 1.00 1.01 1.04 1.05 1.03 1.00 1.01 0.99 1.00 1.03 1.05 1.06 1.07 1.09 1.08 1.02 1.00 1.06 1.10 1.16 1.22 1.21 1.18 1.18 1.22 1.23 1.24 1.24 1.23 1.23 1.26 1.27 1.30 1.35 1.40 1.44 1.47 1.43 1.39 1.33
0.79 0.84 0.86 0.90 0.99 1.09 1.06 1.01 1.02 1.19 1.32 1.41 1.61 1.67 1.54 1.49 1.46 1.42 1.42 1.41 1.32 1.21 1.10 1.07 1.04 1.06 1.04 1.06 1.02 0.99 0.99 1.00 1.00 1.02 1.04 1.06 1.08 1.08 1.05 1.03 1.06 1.08 1.13 1.18 1.22 1.20 1.16 1.21 1.20 1.23 1.23 1.23 1.24 1.25 1.26 1.25 1.27 1.34 1.38 1.43 1.44 1.41 1.31
0.78 0.79 0.79 0.82 0.94 1.03 1.00 0.99 1.11 1.23 1.26 1.50 1.74 1.78 1.60 1.50 1.43 1.41 1.45 1.44 1.38 1.23 1.13 1.07 1.05 1.05 1.02 1.05 1.01 0.97 0.95 0.97 0.99 0.99 1.05 1.09 1.10 1.07 1.07 1.07 1.10 1.12 1.14 1.20 1.21 1.24 1.19 1.15 1.17 1.21 1.24 1.24 1.24 1.24 1.25 1.22 1.19 1.25 1.28 1.30 1.35 1.41 1.37
0.70 0.65 0.70 0.76 0.94 1.02 1.03 1.00 1.10 1.22 1.22 1.37 1.66 1.70 1.59 1.48 1.44 1.42 1.42 1.44 1.43 1.36 1.23 1.07 1.03 1.00 0.97 1.02 0.99 0.97 0.95 0.96 0.97 0.98 1.03 1.03 1.05 1.04 1.04 1.12 1.12 1.13 1.19 1.18 1.21 1.25 1.22 1.16 1.16 1.22 1.27 1.26 1.25 1.27 1.29 1.28 1.25 1.24 1.23 1.20 1.23 1.27 1.38
0.66 0.66 0.66 0.70 0.87 0.92 0.97 0.98 0.99 0.98 1.00 1.10 1.37 1.61 1.62 1.51 1.42 1.38 1.41 1.47 1.47 1.42 1.33 1.22 1.10 1.04 1.00 0.97 0.96 0.95 0.96 0.96 0.95 0.96 0.99 0.98 1.01 1.01 1.01 1.08 1.13 1.15 1.16 1.17 1.22 1.26 1.27 1.25 1.19 1.19 1.26 1.27 1.31 1.29 1.27 1.29 1.27 1.26 1.24 1.19 1.16 1.17 1.23
0.61 0.66 0.67 0.73 0.91 1.01 1.00 0.98 0.99 1.02 1.07 1.12 1.30 1.51 1.54 1.45 1.43 1.44 1.45 1.46 1.48 1.45 1.44 1.37 1.27 1.16 1.06 1.00 0.96 0.93 0.94 0.93 0.95 0.96 0.95 0.96 0.99 0.98 0.99 1.05 1.09 1.17 1.19 1.21 1.27 1.28 1.28 1.32 1.30 1.26 1.25 1.25 1.30 1.32 1.27 1.26 1.26 1.24 1.23 1.23 1.19 1.13 1.14
0.64 0.69 0.72 0.73 0.84 0.97 1.04 1.12 1.13 1.16 1.21 1.30 1.44 1.49 1.48 1.44 1.42 1.40 1.39 1.42 1.44 1.46 1.52 1.50 1.42 1.30 1.18 1.09 1.03 0.99 0.96 0.96 0.99 0.98 0.97 0.98 0.99 1.02 1.03 1.07 1.17 1.22 1.19 1.21 1.22 1.29 1.31 1.31 1.35 1.32 1.26 1.23 1.25 1.28 1.27 1.24 1.24 1.23 1.22 1.24 1.24 1.19 1.14
0.64 0.65 0.67 0.72 0.84 0.93 1.00 0.99 0.95 1.06 1.19 1.30 1.38 1.43 1.43 1.44 1.41 1.40 1.40 1.42 1.46 1.49 1.52 1.52 1.50 1.42 1.31 1.19 1.12 1.07 1.05 1.04 1.03 1.02 1.03 1.01 0.99 1.03 1.05 1.12 1.17 1.21 1.21 1.24 1.20 1.22 1.29 1.30 1.29 1.30 1.25 1.21 1.21 1.24 1.27 1.27 1.26 1.23 1.21 1.22 1.25 1.24 1.20
0.75 0.76 0.75 0.76 0.81 0.79 0.83 0.89 0.99 1.00 1.05 1.16 1.26 1.34 1.39 1.41 1.41 1.38 1.38 1.39 1.45 1.51 1.50 1.51 1.49 1.48 1.44 1.32 1.17 1.11 1.11 1.10 1.05 1.09 1.07 1.04 1.04 1.08 1.10 1.16 1.16 1.18 1.21 1.23 1.26 1.22 1.19 1.31 1.25 1.26 1.27 1.25 1.24 1.23 1.25 1.26 1.26 1.26 1.25 1.24 1.26 1.27 1.23
0.74 0.83 0.87 0.88 0.93 0.98 0.93 0.96 1.07 1.13 1.20 1.27 1.31 1.32 1.35 1.43 1.42 1.39 1.38 1.38 1.42 1.48 1.51 1.52 1.48 1.45 1.47 1.48 1.32 1.18 1.15 1.18 1.14 1.11 1.12 1.09 1.07 1.10 1.12 1.15 1.14 1.17 1.25 1.33 1.28 1.24 1.20 1.22 1.30 1.29 1.27 1.29 1.27 1.27 1.29 1.28 1.26 1.27 1.27 1.26 1.26 1.29 1.26
0.72 0.83 0.86 0.92 0.97 0.94 0.89 1.02 1.22 1.37 1.39 1.30 1.27 1.26 1.29 1.35 1.40 1.40 1.42 1.45 1.46 1.46 1.48 1.51 1.50 1.45 1.43 1.46 1.44 1.36 1.28 1.25 1.24 1.18 1.14 1.12 1.12 1.10 1.10 1.13 1.15 1.18 1.21 1.30 1.34 1.31 1.31 1.28 1.29 1.41 1.36 1.34 1.34 1.32 1.32 1.28 1.26 1.25 1.25 1.24 1.24 1.26 1.26
0.64 0.70 0.71 0.69 0.77 0.89 0.74 0.94 1.27 1.27 1.27 1.29 1.27 1.27 1.26 1.30 1.34 1.35 1.35 1.38 1.43 1.44 1.48 1.51 1.48 1.45 1.42 1.42 1.43 1.49 1.48 1.38 1.33 1.27 1.20 1.15 1.14 1.13 1.12 1.12 1.16 1.19 1.22 1.26 1.35 1.39 1.40 1.38 1.32 1.35 1.43 1.41 1.41 1.41 1.38 1.33 1.29 1.24 1.21 1.21 1.20 1.20 1.21
0.66 0.62 0.59 0.53 0.56 0.61 0.83 0.92 0.94 1.00 1.06 1.15 1.21 1.25 1.27 1.27 1.30 1.35 1.37 1.37 1.39 1.42 1.47 1.50 1.47 1.44 1.40 1.40 1.49 1.53 1.55 1.53 1.46 1.40 1.31 1.23 1.18 1.20 1.20 1.17 1.19 1.22 1.26 1.29 1.35 1.41 1.46 1.49 1.45 1.39 1.45 1.50 1.47 1.46 1.45 1.41 1.36 1.30 1.24 1.19 1.17 1.17 1.15
0.50 0.69 0.72 0.65 0.57 0.59 0.67 0.69 0.72 0.80 0.85 0.89 0.96 1.10 1.17 1.21 1.21 1.26 1.28 1.34 1.36 1.42 1.47 1.45 1.45 1.42 1.43 1.46 1.55 1.57 1.54 1.54 1.55 1.53 1.46 1.39 1.30 1.26 1.27 1.27 1.26 1.27 1.30 1.34 1.38 1.44 1.51 1.51 1.51 1.50 1.45 1.50 1.56 1.56 1.54 1.53 1.51 1.44 1.35 1.27 1.20 1.17 1.14
0.48 0.52 0.61 0.85 1.02 1.17 1.05 0.79 0.68 0.93 0.89 0.88 0.85 0.87 1.00 1.09 1.13 1.12 1.17 1.26 1.33 1.39 1.40 1.37 1.41 1.46 1.47 1.51 1.52 1.55 1.58 1.58 1.57 1.55 1.54 1.50 1.43 1.38 1.36 1.34 1.31 1.30 1.32 1.34 1.40 1.47 1.45 1.45 1.48 1.47 1.48 1.46 1.51 1.55 1.61 1.63 1.66 1.62 1.58 1.52 1.43 1.32 1.24
0.49 0.52 0.56 0.59 0.62 0.66 0.69 0.77 1.29 1.28 1.23 1.24 1.08 0.96 0.94 0.95 1.05 1.07 1.10 1.18 1.27 1.28 1.30 1.33 1.35 1.42 1.43 1.46 1.49 1.54 1.58 1.61 1.61 1.58 1.58 1.58 1.54 1.48 1.43 1.39 1.34 1.32 1.35 1.38 1.42 1.40 1.38 1.41 1.42 1.43 1.45 1.44 1.45 1.52 1.58 1.64 1.71 1.70 1.68 1.65 1.61 1.56 1.49
0.47 0.53 0.59 0.63 0.62 0.71 0.82 0.77 0.86 0.97 0.91 0.75 0.85 1.17 1.10 1.03 1.00 1.08 1.09 1.08 1.15 1.20 1.26 1.29 1.29 1.33 1.41 1.40 1.45 1.52 1.55 1.56 1.61 1.62 1.64 1.66 1.63 1.54 1.46 1.41 1.38 1.38 1.40 1.40 1.38 1.34 1.34 1.35 1.37 1.41 1.43 1.44 1.45 1.48 1.54 1.59 1.67 1.71 1.72 1.70 1.69 1.68 1.65
0.53 0.53 0.55 0.58 0.79 0.94 0.99 0.89 0.88 1.00 1.07 1.02 0.74 0.89 1.13 1.12 1.04 1.01 0.98 1.03 1.01 1.08 1.14 1.24 1.26 1.28 1.37 1.37 1.40 1.44 1.50 1.55 1.57 1.62 1.65 1.67 1.66 1.59 1.49 1.44 1.41 1.38 1.40 1.40 1.42 1.44 1.43 1.44 1.43 1.42 1.45 1.49 1.50 1.47 1.47 1.58 1.66 1.67 1.70 1.72 1.74 1.74 1.72
0.73 0.51 0.49 0.66 1.01 0.98 0.94 0.97 0.89 0.86 0.83 0.76 0.69 0.77 0.76 0.90 1.10 1.01 0.99 0.96 0.97 0.98 1.03 1.10 1.18 1.19 1.23 1.30 1.34 1.40 1.48 1.56 1.59 1.58 1.59 1.61 1.61 1.57 1.51 1.46 1.46 1.47 1.50 1.43 1.41 1.42 1.43 1.44 1.46 1.50 1.52 1.54 1.56 1.52 1.48 1.53 1.64 1.69 1.71 1.73 1.75 1.78 1.76
0.87 0.99 1.03 1.01 1.04 1.03 1.01 0.95 0.97 0.95 0.96 0.94 0.87 0.79 0.80 0.77 0.83 1.02 1.00 0.94 0.95 0.94 0.94 0.98 1.05 1.15 1.19 1.25 1.32 1.38 1.46 1.55 1.60 1.60 1.60 1.61 1.57 1.57 1.57 1.58 1.59 1.57 1.59 1.49 1.45 1.45 1.48 1.53 1.56 1.58 1.58 1.56 1.55 1.55 1.51 1.53 1.62 1.66 1.70 1.75 1.78 1.78 1.75
1.03 1.13 1.10 1.15 1.07 0.98 0.88 0.82 0.78 0.74 0.71 0.69 0.64 0.77 0.86 0.80 0.77 0.81 0.91 0.93 0.92 0.91 0.89 0.89 0.97 1.10 1.16 1.23 1.34 1.39 1.47 1.55 1.59 1.59 1.58 1.56 1.58 1.64 1.62 1.61 1.59 1.63 1.67 1.60 1.55 1.52 1.56 1.60 1.59 1.60 1.63 1.63 1.61 1.63 1.61 1.60 1.66 1.67 1.68 1.74 1.79 1.82 1.84
1.02 1.08 1.15 1.21 1.06 0.92 0.83 0.78 0.87 0.97 0.99 1.06 1.12 1.09 0.98 0.86 0.78 0.75 0.82 0.89 0.88 0.88 0.86 0.86 0.94 1.08 1.19 1.25 1.34 1.41 1.47 1.53 1.56 1.57 1.57 1.57 1.61 1.66 1.64 1.65 1.65 1.64 1.64 1.63 1.60 1.56 1.57 1.61 1.62 1.62 1.66 1.71 1.71 1.68 1.67 1.67 1.72 1.74 1.73 1.73 1.75 1.79 1.84
1.05 1.07 1.05 1.09 1.00 0.99 0.87 0.79 0.96 0.90 0.91 1.00 0.99 1.02 0.99 1.02 0.92 0.78 0.72 0.83 0.86 0.80 0.83 0.94 1.01 1.09 1.16 1.22 1.29 1.36 1.44 1.52 1.57 1.58 1.63 1.67 1.67 1.69 1.68 1.66 1.63 1.65 1.66 1.64 1.64 1.62 1.59 1.60 1.63 1.65 1.69 1.77 1.81 1.78 1.76 1.77 1.77 1.80 1.78 1.75 1.76 1.79 1.82
1.07 1.05 1.06 0.96 1.00 1.00 0.87 0.87 0.98 1.02 1.10 1.09 1.05 1.08 1.08 0.99 0.82 0.82 0.80 0.78 0.82 0.87 0.91 1.02 1.06 1.12 1.18 1.21 1.24 1.33 1.43 1.51 1.61 1.69 1.71 1.76 1.76 1.71 1.67 1.70 1.71 1.69 1.69 1.71 1.66 1.61 1.60 1.62 1.63 1.64 1.68 1.74 1.78 1.81 1.82 1.86 1.85 1.82 1.79 1.77 1.78 1.81 1.84
1.03 0.98 0.91 0.93 1.07 1.04 0.90 0.89 0.98 1.03 1.04 1.00 1.01 0.99 1.07 1.04 1.01 0.87 0.83 0.79 0.85 0.98 0.99 1.05 1.10 1.14 1.18 1.22 1.24 1.31 1.41 1.51 1.59 1.67 1.76 1.77 1.78 1.72 1.65 1.68 1.69 1.71 1.72 1.69 1.66 1.63 1.60 1.61 1.62 1.62 1.62 1.66 1.71 1.75 1.77 1.80 1.81 1.79 1.76 1.78 1.81 1.83 1.86
1.00 0.98 0.94 1.03 1.09 1.05 0.94 0.94 1.04 1.03 1.04 1.04 1.02 0.99 0.95 1.07 0.99 0.95 0.88 0.87 0.97 1.01 1.04 1.05 1.16 1.16 1.17 1.21 1.24 1.32 1.43 1.51 1.59 1.69 1.76 1.79 1.77 1.71 1.68 1.67 1.69 1.71 1.70 1.69 1.65 1.61 1.60 1.61 1.64 1.63 1.60 1.58 1.61 1.68 1.73 1.80 1.86 1.86 1.81 1.78 1.80 1.83 1.86
0.98 1.00 1.00 1.00 1.06 1.05 1.00 0.96 1.00 0.99 0.98 1.02 1.08 1.09 1.07 1.13 1.13 1.01 0.98 1.08 1.10 1.05 1.05 1.08 1.14 1.16 1.19 1.23 1.29 1.32 1.44 1.56 1.62 1.69 1.74 1.78 1.78 1.71 1.70 1.71 1.73 1.67 1.69 1.68 1.64 1.60 1.56 1.59 1.62 1.61 1.61 1.61 1.61 1.67 1.74 1.79 1.84 1.85 1.83 1.82 1.80 1.79 1.79
0.98 1.02 1.02 1.02 1.04 1.03 1.01 1.06 1.08 1.04 0.98 1.05 1.14 1.15 1.17 1.23 1.29 1.18 1.15 1.27 1.27 1.17 1.18 1.13 1.15 1.18 1.21 1.28 1.35 1.39 1.45 1.52 1.62 1.70 1.74 1.77 1.77 1.78 1.78 1.74 1.73 1.68 1.69 1.68 1.65 1.63 1.59 1.59 1.63 1.63 1.65 1.65 1.68 1.69 1.74 1.79 1.79 1.82 1.88 1.86 1.83 1.79 1.77
0.99 1.03 1.04 1.04 1.08 1.09 1.08 1.06 1.03 1.00 1.04 1.08 1.12 1.17 1.18 1.24 1.29 1.30 1.34 1.31 1.31 1.31 1.27 1.25 1.24 1.25 1.26 1.32 1.41 1.50 1.52 1.51 1.55 1.61 1.68 1.71 1.71 1.75 1.77 1.76 1.74 1.72 1.71 1.70 1.67 1.66 1.65 1.64 1.65 1.66 1.67 1.68 1.72 1.75 1.77 1.81 1.82 1.84 1.90 1.85 1.74 1.71 1.71
1.02 1.05 1.10 1.14 1.15 1.14 1.16 1.15 1.10 1.10 1.09 1.07 1.12 1.18 1.19 1.19 1.21 1.26 1.33 1.36 1.42 1.39 1.35 1.30 1.31 1.32 1.35 1.39 1.45 1.46 1.50 1.52 1.55 1.59 1.59 1.63 1.63 1.62 1.65 1.69 1.72 1.69 1.68 1.69 1.69 1.65 1.65 1.67 1.67 1.67 1.68 1.67 1.70 1.72 1.72 1.73 1.81 1.75 1.73 1.74 1.74 1.78 1.77
1.06 1.08 1.10 1.09 1.13 1.14 1.13 1.15 1.16 1.14 1.10 1.10 1.16 1.19 1.20 1.21 1.22 1.26 1.32 1.37 1.44 1.48 1.39 1.31 1.34 1.38 1.39 1.42 1.41 1.46 1.51 1.56 1.59 1.62 1.65 1.68 1.72 1.74 1.73 1.70 1.68 1.71 1.74 1.81 1.84 1.80 1.76 1.73 1.78 1.82 1.84 1.85 1.81 1.76 1.77 1.75 1.67 1.67 1.70 1.73 1.69 1.66 1.67
1.06 1.09 1.11 1.15 1.15 1.16 1.19 1.20 1.19 1.19 1.17 1.16 1.20 1.22 1.22 1.22 1.24 1.27 1.33 1.38 1.45 1.53 1.48 1.41 1.36 1.34 1.35 1.37 1.41 1.49 1.51 1.55 1.58 1.59 1.66 1.68 1.67 1.65 1.70 1.81 1.83 1.81 1.72 1.73 1.78 1.82 1.85 1.86 1.80 1.85 1.87 1.78 1.73 1.75 1.70 1.68 1.71 1.75 1.72 1.70 1.69 1.67 1.65
1.06 1.11 1.15 1.19 1.17 1.18 1.19 1.21 1.23 1.24 1.21 1.20 1.24 1.25 1.23 1.23 1.24 1.27 1.34 1.40 1.49 1.53 1.52 1.50 1.45 1.47 1.47 1.52 1.54 1.58 1.54 1.54 1.55 1.58 1.68 1.78 1.75 1.67 1.63 1.58 1.68 1.74 1.76 1.75 1.75 1.78 1.78 1.78 1.78 1.80 1.82 1.80 1.75 1.71 1.70 1.68 1.67 1.66 1.64 1.62 1.60 1.60 1.58
1.15 1.16 1.17 1.18 1.18 1.19 1.19 1.20 1.21 1.22 1.24 1.28 1.29 1.27 1.26 1.25 1.26 1.29 1.34 1.38 1.43 1.52 1.52 1.50 1.48 1.43 1.46 1.50 1.53 1.56 1.59 1.61 1.63 1.62 1.69 1.74 1.71 1.63 1.53 1.48 1.45 1.48 1.57 1.61 1.66 1.70 1.70 1.68 1.68 1.67 1.68 1.67 1.64 1.59 1.57 1.55 1.54 1.54 1.53 1.52 1.51 1.48 1.46
Wind_Speed
25 25 25 23 22 21 20 21 22 23 24 25 26 26 26 25 25 25 26 27 28 29 29 28 28 28 27 26 26 25 24 23 22 21 20 20 19 19 18 18 17 16 16 15 15 14 14 13 13 13 13 12 12 11 11 10 10 10 9 9 9 9 9
25 25 26 25 24 23 22 22 23 24 25 26 26 26 25 24 24 25 25 27 29 29 29 29 28 28 27 27 26 25 25 24 23 22 21 20 20 19 19 18 18 17 16 15 15 14 14 14 14 13 13 13 13 12 12 12 11 11 11 10 10 10 10
25 25 26 25 24 24 23 22 22 23 25 26 26 26 25 25 25 25 25 26 28 28 28 29 28 28 27 27 26 26 25 25 24 23 22 21 21 20 19 19 18 18 17 16 15 15 15 15 14 14 14 14 14 13 13 12 12 12 12 12 12 11 11
26 25 24 24 24 23 23 22 22 23 25 26 27 26 25 25 25 24 24 25 26 28 28 28 28 28 27 27 27 26 26 25 25 24 23 22 21 21 20 20 19 18 18 17 16 16 15 15 15 15 15 15 14 14 14 13 13 13 13 13 13 13 13
28 26 24 23 24 23 22 22 22 23 25 26 27 27 25 25 24 24 24 24 25 26 27 27 27 27 27 27 27 26 26 26 25 24 24 23 22 22 21 21 20 19 19 18 17 17 16 16 15 15 15 15 15 15 15 15 14 14 14 14 14 14 14
27 26 24 23 24 24 22 22 23 24 25 26 27 26 25 25 25 24 24 24 24 25 26 26 27 27 27 27 26 26 26 26 26 25 24 24 23 22 22 21 20 20 19 19 18 18 18 17 16 16 16 16 16 16 16 16 15 15 15 15 15 15 15
26 25 25 25 24 24 22 22 22 23 23 24 26 26 26 25 25 24 24 24 24 25 25 26 26 26 26 26 26 26 26 26 26 25 24 24 23 23 22 22 21 20 20 19 19 19 19 19 18 17 17 17 17 17 17 16 16 16 16 16 17 17 16
26 25 25 25 25 24 22 22 21 21 22 23 24 26 26 25 25 25 24 24 24 24 25 25 25 25 25 26 26 26 26 26 25 25 25 24 24 23 23 22 22 21 20 20 20 20 20 20 20 19 19 18 18 18 18 17 17 17 17 17 18 18 18
26 26 25 25 25 24 23 22 22 22 22 22 24 25 26 25 25 25 25 25 24 24 25 25 25 25 25 25 25 25 25 25 25 25 25 24 24 24 23 22 22 22 21 21 20 20 20 20 20 20 20 20 19 19 19 19 18 18 17 18 18 18 19
24 25 25 24 24 24 22 22 22 23 23 23 24 25 24 24 25 25 25 25 25 25 25 25 24 24 24 24 24 25 25 25 25 25 25 25 24 24 24 23 22 22 22 21 21 20 20 20 20 20 21 20 20 20 20 20 20 19 19 19 19 19 19
23 25 24 23 23 23 22 21 21 22 22 22 23 24 24 24 24 24 25 25 25 25 25 24 24 23 23 24 24 24 25 25 25 25 25 25 24 24 24 23 23 22 22 22 21 21 20 20 20 20 21 21 21 21 21 21 21 21 21 20 20 20 20
22 23 23 22 22 22 22 21 21 22 21 21 22 23 23 23 24 24 24 25 25 25 25 24 24 23 23 24 24 24 24 25 25 25 25 25 25 24 24 24 23 23 22 22 22 21 20 20 20 20 21 21 21 21 22 22 22 22 22 21 21 21 20
17 19 20 20 21 22 22 22 22 23 22 22 22 22 22 22 23 23 23 24 24 24 24 24 24 24 23 23 24 24 24 25 25 25 25 25 25 24 24 24 23 23 22 22 22 22 21 20 20 20 21 21 21 21 21 21 22 22 22 22 21 21 21
15 16 18 18 18 19 20 20 21 23 23 22 22 22 22 22 23 22 22 23 23 23 24 24 24 24 24 23 23 23 24 24 25 25 25 25 25 24 24 23 23 22 22 21 21 21 20 20 19 19 20 20 20 20 20 21 21 22 22 22 22 21 21
16 16 17 17 16 17 19 19 20 22 22 22 22 22 23 23 23 23 22 22 23 23 23 24 24 25 24 24 24 23 24 24 24 25 25 25 24 24 24 23 23 22 22 21 20 19 19 19 19 18 18 18 18 19 19 20 20 21 22 22 22 22 21
16 16 16 15 15 17 18 18 19 21 21 21 21 22 22 23 22 23 23 23 23 23 23 23 24 24 25 25 24 24 24 24 24 25 25 25 25 25 25 24 23 22 22 21 20 19 18 18 19 19 18 17 17 18 18 18 19 20 21 22 22 22 22
13 15 16 16 16 17 17 18 18 19 21 21 22 22 22 22 22 23 23 23 23 24 24 23 23 24 25 24 24 25 25 25 25 25 25 25 25 25 25 24 23 22 22 21 21 20 19 19 19 19 18 18 17 18 18 18 18 19 20 21 22 22 22
11 12 14 16 17 17 17 18 19 19 21 22 23 23 22 22 22 23 23 23 23 23 23 23 23 23 24 24 23 24 25 26 26 26 25 26 25 25 25 25 24 23 23 22 22 21 21 21 20 20 20 19 18 19 19 19 19 19 19 20 21 22 22
11 11 11 13 15 15 16 18 19 19 20 21 22 23 23 23 23 23 23 22 22 22 23 23 23 23 23 23 23 24 25 26 26 27 26 26 26 26 26 26 25 25 24 24 23 23 22 22 22 22 21 21 20 20 20 19 19 19 20 20 20 21 21
13 13 11 11 12 12 12 14 16 16 17 19 21 22 23 23 23 23 23 22 22 23 23 23 23 23 23 23 23 23 24 26 27 27 27 27 27 27 27 26 26 26 25 24 24 24 24 24 23 23 23 23 22 21 21 20 20 20 20 21 21 21 21
16 15 13 12 12 12 11 12 13 14 14 16 17 19 21 23 23 23 23 23 23 23 23 23 24 24 23 23 23 22 23 25 27 28 28 27 27 27 27 27 27 27 26 25 25 25 25 25 24 24 24 24 23 23 22 21 21 21 21 22 22 22 22
15 17 17 15 14 13 13 13 13 13 13 14 15 17 19 21 22 22 23 23 23 23 23 23 24 24 23 22 22 22 22 24 26 27 28 28 28 28 28 28 28 28 27 26 25 25 25 25 25 25 24 24 24 24 23 23 23 23 23 23 23 23 24
11 14 15 15 14 13 13 13 13 13 14 15 16 16 17 19 20 22 22 22 22 22 23 23 24 24 23 21 21 22 22 23 24 26 27 27 28 28 28 28 28 27 27 26 26 25 25 25 25 25 24 24 25 25 25 25 24 24 24 25 25 25 25
11 12 13 13 12 12 12 13 13 14 15 15 16 17 17 18 19 20 21 22 22 22 23 23 23 24 23 21 20 21 22 22 23 24 26 27 27 27 27 27 27 26 26 26 26 26 25 25 25 25 25 25 25 26 26 26 26 25 25 25 26 27 27
13 13 13 13 12 12 13 14 15 15 16 16 16 17 17 18 19 19 19 21 22 22 22 23 23 23 23 21 20 20 21 21 22 23 24 25 26 26 26 26 25 25 25 26 26 26 25 24 24 24 25 25 26 26 27 27 26 26 26 27 27 28 28
14 15 14 14 14 13 14 15 15 16 16 16 16 16 17 18 19 19 19 20 21 22 22 23 23 23 23 22 21 21 21 21 22 22 23 24 24 25 25 25 25 25 25 26 26 26 26 25 25 25 25 25 26 26 27 27 27 27 28 28 29 30 30
16 16 16 16 15 15 15 15 16 17 17 17 16 17 18 18 19 20 20 20 21 22 22 23 23 23 22 22 22 22 22 22 22 23 23 23 23 24 24 24 24 25 25 25 25 26 26 26 26 26 26 26 26 26 27 27 28 28 28 29 30 31 32
17 16 16 17 17 16 16 16 16 17 17 17 16 17 17 18 19 20 21 20 20 21 21 22 22 23 23 23 23 23 22 22 23 23 23 23 23 23 24 24 24 24 24 25 25 26 26 27 27 26 26 26 26 26 26 27 27 28 28 29 30 31 32
18 17 17 18 18 16 16 17 17 17 17 17 17 18 18 18 19 20 21 21 21 21 21 21 21 22 23 23 23 23 23 23 23 24 24 24 24 24 24 24 24 24 24 25 25 26 26 26 27 27 26 26 26 26 26 26 27 28 28 28 29 31 32
19 19 19 19 18 17 17 18 18 18 17 17 18 19 19 19 19 19 20 20 20 21 21 20 20 21 22 23 23 23 23 23 24 24 24 25 25 26 25 25 25 25 25 25 25 26 26 26 26 27 27 27 27 27 27 27 28 28 29 29 30 31 32
21 21 20 21 19 18 18 19 19 18 18 18 17 18 19 19 19 18 18 19 19 20 21 21 20 20 21 22 23 23 23 22 23 24 25 26 26 26 26 26 25 26 26 26 26 26 26 26 27 27 27 28 28 28 28 29 29 29 29 30 31 32 32
21 21 21 21 20 19 20 21 20 19 18 18 17 17 18 18 17 17 17 18 19 19 21 22 21 20 20 21 22 23 23 22 23 24 25 26 26 26 26 26 26 26 26 26 26 27 27 27 27 28 28 29 29 29 29 29 30 30 30 30 31 32 33
22 21 21 20 20 20 20 21 21 20 19 19 18 18 18 18 18 17 17 18 19 20 21 21 21 21 21 21 21 23 24 24 24 24 25 26 26 26 27 27 27 27 27 27 28 28 27 28 28 29 29 30 30 30 31 31 30 30 30 30 31 32 33
22 21 21 21 20 21 21 21 21 21 20 20 20 20 20 19 19 18 18 18 18 19 20 22 21 21 22 22 22 23 24 25 25 25 25 25 26 26 27 28 28 28 28 28 28 29 29 29 29 30 30 30 30 30 30 30 30 30 31 31 31 31 32
22 22 22 21 21 21 21 21 21 21 21 21 21 21 20 20 20 19 19 18 18 18 19 21 22 22 22 22 22 23 24 24 25 25 25 25 24 24 25 26 27 27 27 27 27 28 28 29 29 30 29 29 29 29 29 29 30 31 32 32 32 32 32
23 23 22 21 21 21 21 21 21 21 21 21 21 21 21 21 21 20 19 19 19 18 18 19 20 21 22 22 22 22 22 23 24 25 25 25 24 24 23 23 24 24 24 25 25 26 26 26 27 28 28 28 28 29 29 29 30 31 32 32 33 33 34
23 23 23 22 22 22 21 21 21 21 21 21 22 22 22 21 21 21 20 19 20 20 18 18 18 19 20 20 20 20 21 22 23 24 24 24 24 24 23 21 21 21 22 23 23 23 24 24 25 26 26 27 28 29 29 30 31 32 32 33 34 35 36
23 23 23 23 23 23 22 22 22 21 21 21 22 22 22 22 21 21 21 20 20 20 20 20 19 19 19 19 19 19 20 20 21 22 22 21 22 23 22 22 22 21 21 21 22 22 23 24 24 25 26 27 28 29 29 30 31 32 33 34 35 36 37
Wind_Direction
219 212 210 212 211 210 210 208 207 207 207 206 204 202 202 203 204 205 205 205 204 204 204 205 205 206 207 208 210 211 212 214 215 216 216 215 216 216 217 219 221 222 223 224 226 227 229 229 229 231 233 234 235 236 238 239 239 241 241 242 241 239 239
216 212 210 212 211 211 212 209 207 207 207 206 203 202 203 203 205 206 206 206 206 205 205 206 206 207 209 210 211 212 213 214 216 217 217 217 218 218 219 220 222 224 225 226 227 229 230 231 231 232 232 235 238 239 239 240 240 240 242 243 242 242 241
212 212 210 210 209 210 211 209 208 207 207 206 203 202 203 203 205 206 206 207 206 206 207 207 208 209 210 211 212 213 214 216 217 218 219 220 220 220 221 222 224 225 226 227 228 229 231 232 232 232 232 235 239 241 241 241 241 241 242 243 244 243 242
209 210 208 206 205 206 208 209 207 206 206 206 204 202 202 203 205 205 206 206 206 206 207 208 209 210 211 212 213 214 215 216 218 219 220 222 222 223 224 224 225 226 228 229 230 231 232 234 234 234 234 235 238 242 244 243 242 242 242 243 244 244 244
206 207 208 207 205 205 207 207 207 206 207 206 204 203 203 203 204 206 205 206 207 207 208 209 210 211 212 213 214 216 217 218 219 220 221 223 224 225 225 226 226 227 229 231 232 234 234 235 236 237 237 237 239 243 245 245 245 244 243 244 244 245 246
204 207 211 212 208 205 206 207 207 208 208 208 205 203 203 204 204 205 205 205 207 208 208 209 210 211 212 213 215 217 218 219 220 221 222 223 224 225 226 227 227 228 230 232 234 236 237 237 238 239 240 241 241 242 245 247 247 247 246 246 246 246 246
205 209 212 211 208 204 205 207 207 207 208 209 208 205 203 204 204 205 205 205 205 207 207 209 210 212 213 214 216 216 217 219 220 221 222 223 224 226 227 228 229 230 232 234 236 237 239 240 240 241 242 243 244 244 246 248 249 249 249 248 248 248 248
208 208 209 208 205 203 203 205 205 203 204 207 209 207 204 204 205 205 206 205 205 206 207 209 210 212 213 215 216 217 217 219 220 221 223 224 225 226 228 229 231 232 234 236 238 239 241 243 243 243 243 244 245 246 247 249 249 250 250 250 249 249 249
208 205 206 205 203 203 204 205 204 203 203 206 208 207 204 205 206 206 207 206 205 206 207 209 211 212 213 214 215 216 217 219 221 222 223 224 226 228 229 230 232 233 235 236 238 240 241 243 244 245 245 245 246 246 248 249 249 250 251 250 250 250 250
203 198 201 203 202 203 204 204 205 206 207 207 208 206 204 205 207 207 208 208 208 207 208 210 211 213 213 214 215 216 217 218 220 221 223 225 227 228 229 231 233 234 235 236 237 239 240 242 243 245 246 246 246 247 247 248 249 249 250 250 251 252 251
195 193 199 205 203 200 202 204 206 207 209 208 206 206 205 207 209 209 209 210 210 209 209 210 211 212 214 215 216 217 218 218 220 221 223 225 227 228 229 231 234 235 235 236 237 238 240 241 243 244 246 247 247 248 248 248 248 249 249 250 251 252 253
194 196 201 205 202 201 204 208 207 207 208 206 205 207 208 209 210 211 212 212 212 212 211 211 211 212 214 216 217 218 219 220 221 222 224 225 227 229 230 231 233 235 235 236 237 239 240 241 243 244 245 247 248 249 248 248 248 248 248 249 250 251 253
189 194 195 198 202 204 207 209 208 207 206 206 205 208 209 209 210 212 213 213 214 215 214 213 214 214 215 217 218 219 220 222 222 223 224 226 227 229 230 231 232 233 234 235 237 239 240 241 242 244 245 247 248 250 250 249 249 248 248 248 249 251 252
181 185 191 196 201 202 202 206 209 207 207 207 206 207 210 210 211 212 214 214 215 216 216 215 216 216 217 219 220 221 221 222 223 223 224 225 227 228 229 230 231 231 232 233 235 237 240 240 241 244 245 247 248 250 250 250 250 249 248 248 248 249 251
180 184 191 198 204 203 203 208 210 208 209 209 206 208 211 212 212 212 214 215 216 217 218 217 217 218 219 221 223 223 223 223 223 223 224 225 226 227 228 228 229 230 231 232 233 236 239 240 241 243 244 245 247 248 249 250 250 249 248 247 248 249 250
187 191 196 201 205 206 206 209 208 207 209 209 208 210 212 213 214 214 215 216 217 218 219 219 219 219 221 223 224 225 225 224 224 224 224 225 226 227 227 228 228 229 230 231 232 235 237 239 240 241 242 243 244 245 247 249 251 250 248 248 248 250 251
189 192 195 199 202 202 203 205 205 207 209 210 211 212 213 215 216 216 217 218 219 220 221 222 221 220 222 224 225 225 226 226 226 226 225 226 227 227 228 228 228 229 230 231 233 235 237 238 238 240 242 243 244 245 247 250 252 251 249 249 249 251 252
188 188 190 195 198 198 201 204 205 208 210 212 213 215 215 216 217 218 220 221 222 223 223 225 224 223 224 225 226 226 226 227 227 227 227 228 228 228 229 229 229 230 231 232 233 235 237 238 239 241 243 245 246 247 249 252 253 252 252 252 251 251 253
196 198 195 194 195 197 203 206 206 209 212 212 213 215 217 218 219 221 223 223 224 225 226 227 227 226 225 226 227 227 227 228 228 228 228 229 229 229 229 230 231 231 232 233 235 237 238 239 241 243 245 246 248 249 251 252 253 253 253 253 252 252 254
206 207 208 208 206 206 207 205 204 208 212 212 213 214 216 218 220 222 224 226 226 226 227 228 229 230 228 227 228 229 229 228 228 228 229 229 229 229 230 230 232 233 234 235 236 238 239 241 243 245 246 248 249 251 252 252 252 252 253 254 254 253 254
214 216 221 224 220 213 208 204 206 212 214 215 217 217 215 217 220 222 224 226 227 227 228 228 229 231 231 229 229 230 230 229 229 229 229 229 229 230 231 232 233 234 235 236 237 239 241 242 244 245 247 248 249 251 253 253 252 251 252 253 254 254 255
222 222 224 223 216 210 211 213 217 220 220 221 225 224 219 218 219 221 224 226 227 227 228 228 228 230 232 232 231 231 231 230 228 228 228 229 229 231 232 233 234 235 236 237 239 241 242 243 245 246 247 248 249 251 253 255 254 253 254 254 254 256 258
222 220 219 216 211 210 215 221 224 225 226 226 228 229 227 224 221 221 222 225 227 227 228 229 229 229 231 232 232 231 230 229 227 228 228 228 229 231 232 233 234 235 237 237 239 241 242 243 245 247 248 249 250 252 254 256 256 255 256 257 256 258 260
219 220 218 215 215 218 223 228 230 230 230 230 229 230 231 231 229 226 223 223 225 226 228 229 228 228 229 231 232 231 229 227 226 227 227 228 229 230 231 232 233 235 236 237 238 240 242 244 246 248 250 251 252 253 255 257 257 257 259 259 258 260 262
225 227 225 222 224 229 231 232 233 232 232 232 231 232 232 233 234 233 228 225 225 226 228 229 229 228 229 230 232 231 228 225 225 225 226 227 228 229 230 231 232 234 235 237 239 241 243 245 248 250 252 253 254 255 256 258 260 260 261 262 261 262 263
230 231 231 231 233 237 237 235 233 233 234 234 234 235 236 234 234 235 234 231 228 228 229 229 229 229 230 231 232 231 229 226 225 225 226 227 228 229 229 231 232 234 235 238 240 242 244 247 249 252 253 255 256 257 258 260 261 262 262 263 263 262 263
232 232 234 238 239 238 238 237 235 235 236 236 238 239 239 237 236 235 235 234 232 231 232 231 230 230 231 232 233 232 230 228 227 226 227 227 228 229 230 232 233 235 236 239 241 243 245 248 250 253 255 256 257 258 259 261 262 263 264 264 265 264 263
234 234 236 239 238 236 237 238 238 237 236 237 240 241 240 240 240 238 236 236 236 234 234 234 232 231 232 232 232 231 230 230 229 228 228 229 229 230 232 233 235 237 239 241 243 245 247 248 251 253 256 257 258 259 261 261 262 264 265 265 266 265 265
237 238 239 240 238 237 238 239 237 237 237 238 240 241 240 242 243 241 239 239 239 237 236 237 235 232 231 231 231 231 231 231 230 230 231 231 231 233 234 235 236 238 240 242 244 246 248 249 251 253 255 257 259 260 261 263 264 265 266 266 267 267 266
239 239 240 241 240 239 240 239 237 237 238 238 240 241 240 240 242 241 239 240 241 238 237 239 238 234 231 230 230 230 232 232 231 232 233 233 234 235 236 237 238 240 241 243 245 247 249 251 252 254 256 258 260 261 263 265 267 268 268 268 268 268 268
239 240 241 243 242 241 241 241 239 238 237 238 238 238 238 238 239 238 238 239 241 239 238 239 240 236 232 231 230 231 232 233 233 234 234 235 236 236 237 238 240 241 243 245 246 249 251 253 254 256 257 259 261 263 265 266 269 271 271 269 268 268 268
240 241 243 244 244 243 243 242 241 239 238 238 238 238 237 237 237 238 239 240 241 240 239 240 240 237 234 232 231 231 233 235 236 236 237 237 238 238 239 240 242 244 245 247 249 251 253 255 257 258 259 261 262 264 265 267 269 272 273 273 272 271 271
241 242 242 243 243 243 242 241 240 239 238 237 238 239 238 238 239 242 242 243 244 242 239 239 239 238 236 235 234 233 234 236 238 239 239 239 239 239 240 242 244 245 247 249 250 252 255 256 258 260 260 261 263 264 265 267 269 272 275 276 277 276 275
241 242 242 242 242 242 242 241 239 239 238 238 239 240 239 239 240 242 242 244 246 246 242 238 238 237 237 237 237 236 237 238 239 240 241 240 241 242 242 243 245 247 249 251 253 254 256 257 258 260 261 263 265 266 267 268 269 272 276 278 280 281 280
240 242 243 243 241 241 242 242 240 239 239 238 239 240 239 239 240 240 241 242 245 248 245 239 237 237 237 238 239 239 238 239 240 241 242 240 242 245 246 247 248 249 250 253 255 256 257 258 259 260 262 264 267 269 270 271 273 274 277 279 281 282 282
240 241 242 242 241 241 241 241 241 240 239 238 239 239 240 240 240 240 241 241 242 245 245 240 238 237 236 237 239 239 238 239 239 241 241 240 240 243 246 249 251 252 252 254 256 257 258 259 260 262 263 265 268 270 272 273 274 275 277 279 281 282 283
239 241 241 241 241 240 241 241 241 241 240 239 239 239 240 241 240 239 240 240 240 242 241 240 239 239 237 238 240 239 239 240 238 238 242 242 239 239 242 246 251 255 255 255 255 257 258 260 262 264 266 267 269 271 272 274 275 277 278 280 282 283 284
239 240 241 241 241 240 240 241 241 241 241 240 239 239 239 240 240 239 239 240 241 241 240 239 240 239 237 237 239 238 240 241 238 238 244 246 242 241 242 245 249 254 257 258 258 259 260 262 264 267 269 270 271 272 274 276 278 280 281 283 284 285 286